EUTELSAT 65 WEST A

Last updated on Sat Dec 13 2025 00:02:49 GMT+0000 (Coordinated Universal Time)

1 41382U 16014A 25346.26345237 -.00000266 00000+0 00000+0 0 9995 2 41382 0.0514 13.1071 0002521 255.6026 202.1469 1.00272064 35665
UTC large
Height (km)
Speed (km/s)
/
Latitude / Longitude
Inclination (degrees)
Orbital Period (minutes)
Azimuth
Elevation
Range (km)
Doppler Factor

Next 0 passes for location: London (51.5072 / 0.1276)

Sorry there are no passes over London.